Home   Weather   Thun   Past weeks

Flag for Switzerland Past Weather in Thun, Bern, Switzerland — Yesterday and Last 2 Weeks

Now
23 °F

Light snow. Partly cloudy.


Feels Like: 15 °F
Forecast: 10 / 25 °F
Wind: 7 mph from East

Location: Bern / Belp

Current Time: Jan 17, 2017 at 10:43:24 pm

Latest Report: Jan 17, 2017 at 9:50 pm


Visibility: 3 mi

Pressure: 30.27 "Hg (28.20 "Hg at 557m altitude)

Humidity: 80%

Dew Point: 18 °F

Location of ThunLocation

Past Weather in Thun — Graph

°F

Thun Temperature Yesterday

Maximum temperature yesterday: 28 °F (at 2:20 pm)
Minimum temperature yesterday: 1 °F (at 7:50 am)
Average temperature yesterday: 18 °F

High & Low Weather Summary for the Past Weeks

 TemperatureHumidityPressure
High45 °F (Jan 12, 5:50 am)100% (Jan 2, 9:20 pm)30.57 "Hg (Jan 2, 9:20 pm)
Low1 °F (Jan 6, 8:20 am)56% (Jan 4, 1:20 pm)29.53 "Hg (Jan 12, 11:20 pm)
Average26 °F85%30.15 "Hg
* Reported Jan 2 9:20 pm — Jan 17 9:20 pm, Thun, Weather by CustomWeather, © 2017

Note: Actual official high and low records may vary slightly from our data, if they occured in-between our weather recording intervals... More about our weather records

Advertising

Thun Weather History for the Previous 24 Hours

Scroll right to see more
 ConditionsComfort  
Time TempWeatherWind HumidityBarometerVisibility
9:20 pm
Tue, Jan 17
23 °FLight snow. Partly cloudy.7 mph80%30.27 "Hg2 mi
8:50 pm23 °FLight snow. Partly cloudy.6 mph80%30.27 "Hg2 mi
8:20 pm23 °FLight snow. Passing clouds.6 mph80%30.27 "Hg3 mi
7:50 pm23 °FLight snow. Passing clouds.7 mph80%30.27 "Hg3 mi
7:20 pm23 °FLight snow. Passing clouds.5 mph80%30.27 "Hg3 mi
6:50 pm23 °FLight snow. Passing clouds.6 mph80%30.24 "Hg3 mi
6:20 pm23 °FLight snow. Partly cloudy.6 mph80%30.24 "Hg3 mi
5:50 pm23 °FLight snow. Passing clouds.5 mph80%30.24 "Hg3 mi
5:20 pm23 °FLight snow. Passing clouds.6 mph80%30.24 "Hg3 mi
4:50 pm23 °FLight snow. Partly sunny.5 mph80%30.24 "Hg3 mi
4:20 pm23 °FLight snow. Partly sunny.7 mph80%30.24 "Hg3 mi
3:50 pm25 °FLight snow. Partly sunny.7 mph74%30.24 "Hg3 mi
3:20 pm25 °FLight snow. Partly sunny.9 mph74%30.24 "Hg3 mi
2:50 pm25 °FLight snow. Partly sunny.10 mph74%30.24 "Hg3 mi
2:20 pm25 °FLight snow. Partly sunny.10 mph69%30.24 "Hg3 mi
1:50 pm25 °FLight snow. Broken clouds.9 mph74%30.24 "Hg3 mi
1:20 pm25 °FLight snow. Broken clouds.8 mph74%30.24 "Hg3 mi
12:50 pm25 °FLight snow. Broken clouds.10 mph69%30.24 "Hg4 mi
12:20 pm25 °FLight snow. Broken clouds.13 mph74%30.24 "Hg3 mi
11:50 am25 °FLight snow. Broken clouds.9 mph74%30.24 "Hg3 mi
11:20 am25 °FLight snow. Broken clouds.9 mph69%30.27 "Hg3 mi
10:50 am25 °FLight snow. Partly sunny.8 mph74%30.24 "Hg3 mi
10:20 am25 °FLight snow. Broken clouds.6 mph74%30.24 "Hg3 mi
9:50 am25 °FLight snow. Broken clouds.10 mph74%30.24 "Hg3 mi
9:20 am25 °FLight snow. Broken clouds.10 mph74%30.24 "Hg4 mi
8:50 am25 °FLight snow. Broken clouds.7 mph74%30.21 "Hg3 mi
8:20 am25 °FLight snow. Partly sunny.7 mph74%30.21 "Hg3 mi
7:50 am25 °FLight snow. Partly cloudy.6 mph80%30.21 "Hg4 mi
7:20 am25 °FLight snow. Partly cloudy.8 mph80%30.21 "Hg3 mi
6:50 am25 °FLight snow. Passing clouds.6 mph74%30.21 "Hg4 mi
6:20 am25 °FLight snow. Partly cloudy.6 mph74%30.18 "Hg4 mi
5:50 am25 °FLight snow. Partly cloudy.8 mph74%30.18 "Hg3 mi
5:20 am25 °FLight snow. Partly cloudy.7 mph74%30.18 "HgN/A
4:50 am25 °FLight snow. Mostly cloudy.6 mph74%30.18 "HgN/A
4:20 am25 °FLight snow. Mostly cloudy.7 mph74%30.18 "Hg5 mi
3:50 am25 °FLight snow. Partly cloudy.5 mph74%30.18 "HgN/A
3:20 am23 °FLight snow. Passing clouds.5 mph80%30.18 "Hg4 mi
2:50 am23 °FLight snow. Partly cloudy.5 mph80%30.18 "Hg4 mi
2:20 am23 °FLight snow. Partly cloudy.5 mph80%30.18 "Hg3 mi
1:50 am23 °FLight snow. Partly cloudy.3 mph74%30.18 "HgN/A
1:20 am23 °FLight snow. Passing clouds.3 mph74%30.18 "HgN/A
12:50 am23 °FLight snow. Partly cloudy.6 mph80%30.18 "HgN/A
12:20 am23 °FSnow flurries. Partly cloudy.5 mph80%30.18 "Hg5 mi
11:50 pm
Mon, Jan 16
23 °FSnow flurries. Overcast.3 mph74%30.18 "HgN/A
11:20 pm23 °FLight snow. Partly cloudy.3 mph74%30.18 "HgN/A
10:50 pm25 °FLight snow. Overcast.3 mph74%30.18 "HgN/A
10:20 pm25 °FPassing clouds.9 mph74%30.18 "HgN/A
Weather by CustomWeather, © 2017

See weather overviewHow to use our weather pages